Time,TemperatureF,DewpointF,PressureIn,WindDirection,WindDirectionDegrees,WindSpeedMPH,WindSpeedGustMPH,Humidity,HourlyPrecipIn,Conditions,Clouds,dailyrainin,SolarRadiationWatts/m^2,SoftwareType,DateUTC
2013-03-26 00:02:00,31.0,23.0,-100.00,NW,309,4.0,10.0,73,0.00,,,0.00,0.000000,,2013-03-26 04:02:00,
2013-03-26 00:33:00,31.0,23.0,-100.00,NW,309,4.0,10.0,73,0.00,,,0.00,0.000000,,2013-03-26 04:33:00,
2013-03-26 00:43:00,31.0,23.0,-100.00,NW,309,4.0,10.0,73,0.00,,,0.00,0.000000,,2013-03-26 04:43:00,
2013-03-26 00:53:00,31.0,23.0,-100.00,NW,309,4.0,10.0,73,0.00,,,0.00,0.000000,,2013-03-26 04:53:00,
2013-03-26 01:02:00,31.0,24.0,-100.00,WNW,301,5.0,11.0,74,0.00,,,0.00,0.000000,,2013-03-26 05:02:00,
2013-03-26 01:23:00,31.0,24.0,-100.00,WNW,301,5.0,11.0,74,0.00,,,0.00,0.000000,,2013-03-26 05:23:00,
2013-03-26 01:32:00,31.0,24.0,-100.00,WNW,301,5.0,11.0,74,0.00,,,0.00,0.000000,,2013-03-26 05:32:00,
2013-03-26 01:42:00,31.0,24.0,-100.00,WNW,301,5.0,11.0,74,0.00,,,0.00,0.000000,,2013-03-26 05:42:00,
2013-03-26 01:52:00,31.0,24.0,-100.00,WNW,301,5.0,11.0,74,0.00,,,0.00,0.000000,,2013-03-26 05:52:00,
2013-03-26 02:02:00,31.0,25.0,-100.00,WNW,303,4.0,11.0,79,0.00,,,0.00,0.000000,,2013-03-26 06:02:00,
2013-03-26 02:32:00,31.0,25.0,-100.00,WNW,303,4.0,11.0,79,0.00,,,0.00,0.000000,,2013-03-26 06:32:00,
2013-03-26 02:43:00,31.0,25.0,-100.00,WNW,303,4.0,11.0,79,0.00,,,0.00,0.000000,,2013-03-26 06:43:00,
2013-03-26 02:53:00,31.0,25.0,-100.00,WNW,303,4.0,11.0,79,0.00,,,0.00,0.000000,,2013-03-26 06:53:00,
2013-03-26 03:02:00,31.0,24.0,-100.00,NW,317,5.0,10.0,76,0.00,,,0.00,0.000000,,2013-03-26 07:02:00,
2013-03-26 03:33:00,31.0,24.0,-100.00,NW,317,5.0,10.0,76,0.00,,,0.00,0.000000,,2013-03-26 07:33:00,
2013-03-26 03:43:00,31.0,24.0,-100.00,NW,317,5.0,10.0,76,0.00,,,0.00,0.000000,,2013-03-26 07:43:00,
2013-03-26 03:53:00,31.0,24.0,-100.00,NW,317,5.0,10.0,76,0.00,,,0.00,0.000000,,2013-03-26 07:53:00,
2013-03-26 04:02:00,30.0,26.0,-100.00,NW,310,5.0,9.0,85,0.00,,,0.00,0.000000,,2013-03-26 08:02:00,
2013-03-26 04:22:00,30.0,26.0,-100.00,NW,310,5.0,9.0,85,0.00,,,0.00,0.000000,,2013-03-26 08:22:00,
2013-03-26 04:32:00,30.0,26.0,-100.00,NW,310,5.0,9.0,85,0.00,,,0.00,0.000000,,2013-03-26 08:32:00,
2013-03-26 04:42:00,30.0,26.0,-100.00,NW,310,5.0,9.0,85,0.00,,,0.00,0.000000,,2013-03-26 08:42:00,
2013-03-26 04:52:00,30.0,26.0,-100.00,NW,310,5.0,9.0,85,0.00,,,0.00,0.000000,,2013-03-26 08:52:00,
2013-03-26 05:02:00,31.0,25.0,-100.00,NW,315,5.0,10.0,79,0.00,,,0.00,0.000000,,2013-03-26 09:02:00,
2013-03-26 05:33:00,31.0,25.0,-100.00,NW,315,5.0,10.0,79,0.00,,,0.00,0.000000,,2013-03-26 09:33:00,
2013-03-26 05:43:00,31.0,25.0,-100.00,NW,315,5.0,10.0,79,0.00,,,0.00,0.000000,,2013-03-26 09:43:00,
2013-03-26 05:52:00,31.0,25.0,-100.00,NW,315,5.0,10.0,79,0.00,,,0.00,0.000000,,2013-03-26 09:52:00,
2013-03-26 06:02:00,29.0,25.0,-100.00,NW,308,4.0,9.0,85,0.00,,,0.00,0.000000,,2013-03-26 10:02:00,
2013-03-26 06:33:00,29.0,25.0,-100.00,NW,308,4.0,9.0,85,0.00,,,0.00,0.000000,,2013-03-26 10:33:00,
2013-03-26 06:43:00,29.0,25.0,-100.00,NW,308,4.0,9.0,85,0.00,,,0.00,0.000000,,2013-03-26 10:43:00,
2013-03-26 06:53:00,29.0,25.0,-100.00,NW,308,4.0,9.0,85,0.00,,,0.00,0.000000,,2013-03-26 10:53:00,
2013-03-26 07:02:00,29.0,26.0,-100.00,WNW,302,3.0,10.0,87,0.00,,,0.00,0.000000,,2013-03-26 11:02:00,
2013-03-26 07:33:00,29.0,26.0,-100.00,WNW,302,3.0,10.0,87,0.00,,,0.00,0.000000,,2013-03-26 11:33:00,
2013-03-26 07:43:00,29.0,26.0,-100.00,WNW,302,3.0,10.0,87,0.00,,,0.00,0.000000,,2013-03-26 11:43:00,
2013-03-26 07:52:00,29.0,26.0,-100.00,WNW,302,3.0,10.0,87,0.00,,,0.00,0.000000,,2013-03-26 11:52:00,
2013-03-26 08:02:00,30.0,25.0,-100.00,NW,313,5.0,9.0,82,0.00,,,0.00,3.000000,,2013-03-26 12:02:00,
2013-03-26 08:32:00,30.0,25.0,-100.00,NW,313,5.0,9.0,82,0.00,,,0.00,3.000000,,2013-03-26 12:32:00,
2013-03-26 08:43:00,30.0,25.0,-100.00,NW,313,5.0,9.0,82,0.00,,,0.00,3.000000,,2013-03-26 12:43:00,
2013-03-26 08:52:00,30.0,25.0,-100.00,NW,313,5.0,9.0,82,0.00,,,0.00,3.000000,,2013-03-26 12:52:00,
2013-03-26 09:02:00,32.0,27.0,-100.00,NW,308,3.0,9.0,80,0.00,,,0.00,32.000000,,2013-03-26 13:02:00,
2013-03-26 09:32:00,32.0,27.0,-100.00,NW,308,3.0,9.0,80,0.00,,,0.00,32.000000,,2013-03-26 13:32:00,
2013-03-26 09:42:00,32.0,27.0,-100.00,NW,308,3.0,9.0,80,0.00,,,0.00,32.000000,,2013-03-26 13:42:00,
2013-03-26 09:52:00,32.0,27.0,-100.00,NW,308,3.0,9.0,80,0.00,,,0.00,32.000000,,2013-03-26 13:52:00,
2013-03-26 10:02:00,35.0,25.0,-100.00,NW,322,6.0,11.0,67,0.00,,,0.00,174.000000,,2013-03-26 14:02:00,
2013-03-26 10:33:00,35.0,25.0,-100.00,NW,322,6.0,11.0,67,0.00,,,0.00,174.000000,,2013-03-26 14:33:00,
2013-03-26 10:42:00,35.0,25.0,-100.00,NW,322,6.0,11.0,67,0.00,,,0.00,174.000000,,2013-03-26 14:42:00,
2013-03-26 10:53:00,35.0,25.0,-100.00,NW,322,6.0,11.0,67,0.00,,,0.00,174.000000,,2013-03-26 14:53:00,
2013-03-26 11:02:00,35.0,24.0,-100.00,NW,325,8.0,14.0,65,0.00,,,0.00,202.000000,,2013-03-26 15:02:00,
2013-03-26 11:33:00,35.0,24.0,-100.00,NW,325,8.0,14.0,65,0.00,,,0.00,202.000000,,2013-03-26 15:33:00,
2013-03-26 11:43:00,35.0,24.0,-100.00,NW,325,8.0,14.0,65,0.00,,,0.00,202.000000,,2013-03-26 15:43:00,
2013-03-26 11:53:00,35.0,24.0,-100.00,NW,325,8.0,14.0,65,0.00,,,0.00,202.000000,,2013-03-26 15:53:00,
2013-03-26 12:02:00,38.0,25.0,-100.00,NW,323,7.0,14.0,58,0.00,,,0.00,289.000000,,2013-03-26 16:02:00,
2013-03-26 12:33:00,38.0,25.0,-100.00,NW,323,7.0,14.0,58,0.00,,,0.00,289.000000,,2013-03-26 16:33:00,
2013-03-26 12:43:00,38.0,25.0,-100.00,NW,323,7.0,14.0,58,0.00,,,0.00,289.000000,,2013-03-26 16:43:00,
2013-03-26 12:54:00,38.0,25.0,-100.00,NW,323,7.0,14.0,58,0.00,,,0.00,289.000000,,2013-03-26 16:54:00,
2013-03-26 13:02:00,38.0,23.0,-100.00,NNW,327,8.0,14.0,55,0.00,,,0.00,301.000000,,2013-03-26 17:02:00,
2013-03-26 13:33:00,38.0,23.0,-100.00,NNW,327,8.0,14.0,55,0.00,,,0.00,301.000000,,2013-03-26 17:33:00,
2013-03-26 13:42:00,38.0,23.0,-100.00,NNW,327,8.0,14.0,55,0.00,,,0.00,301.000000,,2013-03-26 17:42:00,
2013-03-26 13:53:00,38.0,23.0,-100.00,NNW,327,8.0,14.0,55,0.00,,,0.00,301.000000,,2013-03-26 17:53:00,
2013-03-26 14:02:00,39.0,22.0,-100.00,NNW,329,7.0,14.0,50,0.00,,,0.00,283.000000,,2013-03-26 18:02:00,
2013-03-26 14:34:00,39.0,22.0,-100.00,NNW,329,7.0,14.0,50,0.00,,,0.00,283.000000,,2013-03-26 18:34:00,
2013-03-26 14:42:00,39.0,22.0,-100.00,NNW,329,7.0,14.0,50,0.00,,,0.00,283.000000,,2013-03-26 18:42:00,
2013-03-26 14:53:00,39.0,22.0,-100.00,NNW,329,7.0,14.0,50,0.00,,,0.00,283.000000,,2013-03-26 18:53:00,
2013-03-26 15:02:00,42.0,22.0,-100.00,NW,323,9.0,15.0,45,0.00,,,0.00,272.000000,,2013-03-26 19:02:00,
2013-03-26 15:23:00,42.0,22.0,-100.00,NW,323,9.0,15.0,45,0.00,,,0.00,272.000000,,2013-03-26 19:23:00,
2013-03-26 15:33:00,42.0,22.0,-100.00,NW,323,9.0,15.0,45,0.00,,,0.00,272.000000,,2013-03-26 19:33:00,
2013-03-26 15:42:00,42.0,22.0,-100.00,NW,323,9.0,15.0,45,0.00,,,0.00,272.000000,,2013-03-26 19:42:00,
2013-03-26 15:53:00,42.0,22.0,-100.00,NW,323,9.0,15.0,45,0.00,,,0.00,272.000000,,2013-03-26 19:53:00,
2013-03-26 16:02:00,40.0,22.0,-100.00,NW,326,8.0,15.0,49,0.00,,,0.00,222.000000,,2013-03-26 20:02:00,
2013-03-26 16:32:00,40.0,22.0,-100.00,NW,326,8.0,15.0,49,0.00,,,0.00,222.000000,,2013-03-26 20:32:00,
2013-03-26 16:43:00,40.0,22.0,-100.00,NW,326,8.0,15.0,49,0.00,,,0.00,222.000000,,2013-03-26 20:43:00,
2013-03-26 16:53:00,40.0,22.0,-100.00,NW,326,8.0,15.0,49,0.00,,,0.00,222.000000,,2013-03-26 20:53:00,
2013-03-26 17:02:00,41.0,22.0,-100.00,NW,323,9.0,15.0,46,0.00,,,0.00,258.000000,,2013-03-26 21:02:00,
2013-03-26 17:23:00,41.0,22.0,-100.00,NW,323,9.0,15.0,46,0.00,,,0.00,258.000000,,2013-03-26 21:23:00,
2013-03-26 17:33:00,41.0,22.0,-100.00,NW,323,9.0,15.0,46,0.00,,,0.00,258.000000,,2013-03-26 21:33:00,
2013-03-26 17:43:00,41.0,22.0,-100.00,NW,323,9.0,15.0,46,0.00,,,0.00,258.000000,,2013-03-26 21:43:00,
2013-03-26 17:52:00,41.0,22.0,-100.00,NW,323,9.0,15.0,46,0.00,,,0.00,258.000000,,2013-03-26 21:52:00,
2013-03-26 18:23:00,38.0,22.0,-100.00,NW,325,9.0,15.0,53,0.00,,,0.00,97.000000,,2013-03-26 22:23:00,
2013-03-26 18:33:00,38.0,22.0,-100.00,NW,325,9.0,15.0,53,0.00,,,0.00,97.000000,,2013-03-26 22:33:00,
2013-03-26 18:42:00,38.0,22.0,-100.00,NW,325,9.0,15.0,53,0.00,,,0.00,97.000000,,2013-03-26 22:42:00,
2013-03-26 18:52:00,38.0,22.0,-100.00,NW,325,9.0,15.0,53,0.00,,,0.00,97.000000,,2013-03-26 22:52:00,
2013-03-26 19:01:00,38.0,22.0,-100.00,NW,325,9.0,15.0,53,0.00,,,0.00,97.000000,,2013-03-26 23:01:00,
2013-03-26 19:02:00,37.0,23.0,-100.00,NW,318,7.0,14.0,57,0.00,,,0.00,39.000000,,2013-03-26 23:02:00,
2013-03-26 19:32:00,37.0,23.0,-100.00,NW,318,7.0,14.0,57,0.00,,,0.00,39.000000,,2013-03-26 23:32:00,
2013-03-26 19:43:00,37.0,23.0,-100.00,NW,318,7.0,14.0,57,0.00,,,0.00,39.000000,,2013-03-26 23:43:00,
2013-03-26 19:53:00,37.0,23.0,-100.00,NW,318,7.0,14.0,57,0.00,,,0.00,39.000000,,2013-03-26 23:53:00,
2013-03-26 20:02:00,36.0,23.0,-100.00,NW,319,6.0,11.0,59,0.00,,,0.00,9.000000,,2013-03-27 00:02:00,
2013-03-26 20:33:00,36.0,23.0,-100.00,NW,319,6.0,11.0,59,0.00,,,0.00,9.000000,,2013-03-27 00:33:00,
2013-03-26 20:42:00,36.0,23.0,-100.00,NW,319,6.0,11.0,59,0.00,,,0.00,9.000000,,2013-03-27 00:42:00,
2013-03-26 20:52:00,36.0,23.0,-100.00,NW,319,6.0,11.0,59,0.00,,,0.00,9.000000,,2013-03-27 00:52:00,
2013-03-26 21:02:00,35.0,23.0,-100.00,NW,323,6.0,11.0,60,0.00,,,0.00,0.000000,,2013-03-27 01:02:00,
2013-03-26 21:23:00,35.0,23.0,-100.00,NW,323,6.0,11.0,60,0.00,,,0.00,0.000000,,2013-03-27 01:23:00,
2013-03-26 21:33:00,35.0,23.0,-100.00,NW,323,6.0,11.0,60,0.00,,,0.00,0.000000,,2013-03-27 01:33:00,
2013-03-26 21:43:00,35.0,23.0,-100.00,NW,323,6.0,11.0,60,0.00,,,0.00,0.000000,,2013-03-27 01:43:00,
2013-03-26 21:53:00,35.0,23.0,-100.00,NW,323,6.0,11.0,60,0.00,,,0.00,0.000000,,2013-03-27 01:53:00,
2013-03-26 22:02:00,35.0,23.0,-100.00,NW,317,6.0,10.0,60,0.00,,,0.00,0.000000,,2013-03-27 02:02:00,
2013-03-26 22:32:00,35.0,23.0,-100.00,NW,317,6.0,10.0,60,0.00,,,0.00,0.000000,,2013-03-27 02:32:00,
2013-03-26 22:42:00,35.0,23.0,-100.00,NW,317,6.0,10.0,60,0.00,,,0.00,0.000000,,2013-03-27 02:42:00,
2013-03-26 22:53:00,35.0,23.0,-100.00,NW,317,6.0,10.0,60,0.00,,,0.00,0.000000,,2013-03-27 02:53:00,
2013-03-26 23:02:00,34.0,23.0,-100.00,NW,322,5.0,9.0,64,0.00,,,0.00,0.000000,,2013-03-27 03:02:00,
2013-03-26 23:33:00,34.0,23.0,-100.00,NW,322,5.0,9.0,64,0.00,,,0.00,0.000000,,2013-03-27 03:33:00,
2013-03-26 23:43:00,34.0,23.0,-100.00,NW,322,5.0,9.0,64,0.00,,,0.00,0.000000,,2013-03-27 03:43:00,
2013-03-26 23:53:00,34.0,23.0,-100.00,NW,322,5.0,9.0,64,0.00,,,0.00,0.000000,,2013-03-27 03:53:00,